TimeAKDT,TemperatureF,Dew PointF,Humidity,Sea Level PressureIn,VisibilityMPH,Wind Direction,Wind SpeedMPH,Gust SpeedMPH,PrecipitationIn,Events,Conditions,WindDirDegrees,DateUTC
12:04 AM,35.6,33.8,93,29.57,7.0,Calm,Calm,-,0.01,Rain,Light Rain,0,2013-04-09 08:04:00
12:12 AM,35.6,33.8,93,29.57,8.0,Calm,Calm,-,0.01,Rain,Light Rain,0,2013-04-09 08:12:00
12:53 AM,35.1,33.1,92,29.54,7.0,Calm,Calm,-,0.03,Rain,Light Rain,0,2013-04-09 08:53:00
1:15 AM,35.6,33.8,93,29.52,10.0,Calm,Calm,-,0.01,Rain,Light Rain,0,2013-04-09 09:15:00
1:53 AM,35.1,34.0,96,29.47,7.0,Variable,3.5,-,0.04,Rain,Light Rain,0,2013-04-09 09:53:00
2:53 AM,35.1,34.0,96,29.39,8.0,Calm,Calm,-,0.03,Rain,Light Rain,0,2013-04-09 10:53:00
3:53 AM,35.1,33.1,92,29.31,7.0,Calm,Calm,-,0.05,Rain,Light Rain,0,2013-04-09 11:53:00
4:53 AM,34.0,32.0,92,29.28,5.0,Calm,Calm,-,0.10,Snow,Light Snow,0,2013-04-09 12:53:00
5:15 AM,33.8,32.0,93,29.25,7.0,Calm,Calm,-,0.03,Rain,Light Rain,0,2013-04-09 13:15:00
5:53 AM,33.1,30.9,92,29.21,6.0,NE,3.5,-,0.09,Rain,Light Rain,40,2013-04-09 13:53:00
6:32 AM,33.8,30.2,87,29.18,4.0,Calm,Calm,-,0.04,Snow,Light Snow,0,2013-04-09 14:32:00
6:50 AM,32.0,32.0,100,29.18,2.0,Calm,Calm,-,0.07,Snow,Light Snow,0,2013-04-09 14:50:00
6:53 AM,32.0,32.0,100,29.18,2.0,Calm,Calm,-,0.07,Snow,Light Snow,0,2013-04-09 14:53:00
7:04 AM,33.8,32.0,93,29.18,3.0,Calm,Calm,-,0.03,Snow,Light Snow,0,2013-04-09 15:04:00
7:16 AM,32.0,30.2,93,29.17,2.5,Calm,Calm,-,0.05,Snow,Light Snow,0,2013-04-09 15:16:00
7:40 AM,32.0,32.0,100,29.15,1.5,Calm,Calm,-,0.10,Snow,Light Snow,0,2013-04-09 15:40:00
7:44 AM,32.0,32.0,100,29.15,1.2,Calm,Calm,-,0.11,Snow,Light Snow,0,2013-04-09 15:44:00
7:53 AM,32.0,32.0,100,29.14,1.2,Calm,Calm,-,0.13,Snow,Light Snow,0,2013-04-09 15:53:00
8:14 AM,32.0,30.2,93,29.13,0.8,Calm,Calm,-,0.04,Snow,Light Snow,0,2013-04-09 16:14:00
8:27 AM,32.0,30.2,93,29.12,1.2,Calm,Calm,-,0.05,Snow,Light Snow,0,2013-04-09 16:27:00
8:34 AM,32.0,30.2,93,29.12,1.5,Calm,Calm,-,0.07,Snow,Light Snow,0,2013-04-09 16:34:00
8:53 AM,32.0,32.0,100,29.12,1.2,Calm,Calm,-,0.10,Snow,Light Snow,0,2013-04-09 16:53:00
9:08 AM,32.0,32.0,100,29.12,0.8,Calm,Calm,-,0.04,Snow,Light Snow,0,2013-04-09 17:08:00
9:34 AM,32.0,32.0,100,29.11,1.0,Calm,Calm,-,0.11,Snow,Light Snow,0,2013-04-09 17:34:00
9:53 AM,32.0,30.9,96,29.10,1.2,Calm,Calm,-,0.15,Snow,Light Snow,0,2013-04-09 17:53:00
10:29 AM,32.0,30.2,93,29.09,0.8,Calm,Calm,-,0.09,Snow,Light Snow,0,2013-04-09 18:29:00
10:53 AM,32.0,30.9,96,29.08,1.0,Calm,Calm,-,0.14,Snow,Light Snow,0,2013-04-09 18:53:00
11:01 AM,32.0,30.2,93,29.07,0.8,Calm,Calm,-,0.01,Snow,Light Snow,0,2013-04-09 19:01:00
11:11 AM,32.0,30.2,93,29.08,1.0,Calm,Calm,-,0.03,Snow,Light Snow,0,2013-04-09 19:11:00
11:24 AM,32.0,30.2,93,29.08,1.2,Calm,Calm,-,0.04,Snow,Light Snow,0,2013-04-09 19:24:00
11:31 AM,32.0,30.2,93,29.08,2.0,NNE,3.5,-,0.05,Snow,Light Snow,30,2013-04-09 19:31:00
11:48 AM,33.8,30.2,87,29.08,4.0,Calm,Calm,-,0.08,Rain,Light Rain,0,2013-04-09 19:48:00
11:53 AM,33.1,32.0,96,29.08,4.0,Calm,Calm,-,0.08,Rain,Light Rain,0,2013-04-09 19:53:00
12:16 PM,33.8,32.0,93,29.08,7.0,Variable,5.8,-,0.02,Rain,Light Rain,0,2013-04-09 20:16:00
12:33 PM,39.2,37.4,93,29.06,7.0,SSW,24.2,33.4,0.03,Rain,Light Rain,200,2013-04-09 20:33:00
12:43 PM,41.0,37.4,87,29.07,6.0,SSW,26.5,39.1,0.04,Rain,Light Rain,200,2013-04-09 20:43:00
12:53 PM,42.1,37.0,82,29.06,4.0,SSW,39.1,49.5,0.04,,Haze,210,2013-04-09 20:53:00
1:53 PM,43.0,35.1,74,29.13,10.0,SSW,40.3,51.8,0.00,,Overcast,210,2013-04-09 21:53:00
2:53 PM,43.0,33.1,68,29.18,10.0,SSW,42.6,52.9,N/A,,Overcast,210,2013-04-09 22:53:00
3:53 PM,42.1,32.0,67,29.25,10.0,SSW,35.7,55.2,N/A,,Overcast,210,2013-04-09 23:53:00
4:53 PM,43.0,28.9,58,29.32,10.0,SSW,28.8,50.6,N/A,,Mostly Cloudy,200,2013-04-10 00:53:00
5:53 PM,43.0,19.9,40,29.39,10.0,SSW,27.6,41.4,N/A,,Clear,200,2013-04-10 01:53:00
6:53 PM,41.0,18.0,40,29.44,10.0,SSW,13.8,32.2,N/A,,Scattered Clouds,200,2013-04-10 02:53:00
7:53 PM,39.0,18.0,43,29.48,10.0,SSW,20.7,38.0,N/A,,Mostly Cloudy,200,2013-04-10 03:53:00
8:53 PM,37.9,19.9,48,29.54,10.0,SSW,24.2,33.4,N/A,,Overcast,210,2013-04-10 04:53:00
9:53 PM,37.9,17.1,43,29.57,10.0,South,13.8,28.8,N/A,,Overcast,190,2013-04-10 05:53:00
10:53 PM,35.1,27.0,72,29.58,10.0,SSW,33.4,40.3,N/A,,Overcast,210,2013-04-10 06:53:00
11:53 PM,36.0,28.0,73,29.60,9.0,SW,32.2,43.7,0.00,Snow,Light Snow,220,2013-04-10 07:53:00